TimeEST,TemperatureF,Dew PointF,Humidity,Sea Level PressureIn,VisibilityMPH,Wind Direction,Wind SpeedMPH,Gust SpeedMPH,PrecipitationIn,Events,Conditions,WindDirDegrees,DateUTC
1:32 AM,33.8,32.0,93,29.77,5.0,ENE,9.2,-,N/A,,Overcast,60,2013-02-08 06:32:00
2:12 AM,33.8,32.0,93,29.76,5.0,ENE,5.8,-,N/A,,Overcast,60,2013-02-08 07:12:00
2:32 AM,33.8,32.0,93,29.76,4.0,ENE,5.8,-,N/A,,Overcast,60,2013-02-08 07:32:00
2:52 AM,33.8,32.0,93,29.74,4.0,ENE,5.8,-,N/A,,Overcast,60,2013-02-08 07:52:00
3:12 AM,33.8,33.8,100,29.74,4.0,NE,3.5,-,N/A,,Overcast,50,2013-02-08 08:12:00
3:32 AM,33.8,33.8,100,29.73,3.0,Calm,Calm,-,N/A,Snow,Light Snow,0,2013-02-08 08:32:00
4:32 AM,33.8,33.8,100,29.73,2.5,NNW,3.5,-,N/A,Snow,Light Snow,330,2013-02-08 09:32:00
5:33 AM,33.8,32.0,93,29.75,4.0,NNW,8.1,-,N/A,,Overcast,330,2013-02-08 10:33:00
5:53 AM,32.0,30.2,93,29.76,5.0,NW,6.9,-,N/A,,Overcast,320,2013-02-08 10:53:00
6:33 AM,30.2,30.2,100,29.78,5.0,NW,6.9,-,N/A,,Overcast,310,2013-02-08 11:33:00
6:53 AM,30.2,30.2,100,29.80,2.5,NW,8.1,-,N/A,,Overcast,320,2013-02-08 11:53:00
7:13 AM,30.2,30.2,100,29.81,4.0,NW,9.2,-,N/A,,Overcast,320,2013-02-08 12:13:00
7:33 AM,30.2,28.4,93,29.82,5.0,NW,8.1,-,N/A,Snow,Light Snow,320,2013-02-08 12:33:00
7:53 AM,30.2,30.2,100,29.83,2.5,NNW,9.2,-,N/A,Snow,Light Snow,330,2013-02-08 12:53:00
8:34 AM,30.2,30.2,100,29.86,1.5,NNW,11.5,-,N/A,Snow,Light Snow,340,2013-02-08 13:34:00
8:54 AM,30.2,30.2,100,29.87,0.5,NNW,10.4,-,N/A,Snow,Light Snow,330,2013-02-08 13:54:00
9:14 AM,30.2,28.4,93,29.89,1.2,NNW,9.2,-,N/A,Snow,Light Snow,330,2013-02-08 14:14:00
9:54 AM,30.2,26.6,86,29.92,10.0,NNW,12.7,16.1,N/A,,Overcast,330,2013-02-08 14:54:00
10:14 AM,30.2,26.6,86,29.93,10.0,NNW,12.7,-,N/A,,Overcast,340,2013-02-08 15:14:00
10:54 AM,30.2,26.6,86,29.96,10.0,NNW,10.4,18.4,N/A,,Overcast,340,2013-02-08 15:54:00
11:14 AM,30.2,24.8,80,29.98,10.0,NNW,13.8,18.4,N/A,,Overcast,340,2013-02-08 16:14:00
11:55 AM,30.2,24.8,80,30.01,10.0,North,13.8,21.9,N/A,,Overcast,350,2013-02-08 16:55:00
12:15 PM,28.4,24.8,86,30.02,10.0,NW,12.7,-,N/A,,Overcast,320,2013-02-08 17:15:00
12:35 PM,28.4,24.8,86,30.03,10.0,NNW,10.4,-,N/A,,Overcast,330,2013-02-08 17:35:00
12:55 PM,28.4,23.0,80,30.05,10.0,NNW,15.0,19.6,N/A,,Overcast,330,2013-02-08 17:55:00
1:15 PM,28.4,23.0,80,30.06,10.0,NNW,13.8,18.4,N/A,,Overcast,330,2013-02-08 18:15:00
1:35 PM,28.4,23.0,80,30.07,10.0,NW,13.8,-,N/A,,Overcast,320,2013-02-08 18:35:00
1:55 PM,28.4,21.2,74,30.07,10.0,NNW,13.8,20.7,N/A,,Overcast,330,2013-02-08 18:55:00
2:15 PM,28.4,21.2,74,30.08,10.0,NNW,15.0,20.7,N/A,,Overcast,330,2013-02-08 19:15:00
2:36 PM,28.4,23.0,80,30.09,10.0,NNW,12.7,17.3,N/A,,Overcast,330,2013-02-08 19:36:00
2:56 PM,28.4,23.0,80,30.09,10.0,NNW,11.5,-,N/A,,Overcast,330,2013-02-08 19:56:00
3:11 PM,28.4,23.0,80,30.10,10.0,NNW,10.4,-,N/A,,Overcast,330,2013-02-08 20:11:00
3:31 PM,28.4,23.0,80,30.11,10.0,NW,9.2,-,N/A,,Overcast,320,2013-02-08 20:31:00
3:51 PM,28.4,23.0,80,30.12,10.0,NNW,10.4,-,N/A,,Overcast,330,2013-02-08 20:51:00
4:11 PM,28.4,21.2,74,30.13,10.0,NNW,11.5,-,N/A,,Overcast,330,2013-02-08 21:11:00
4:31 PM,28.4,23.0,80,30.14,10.0,NNW,10.4,-,N/A,,Overcast,330,2013-02-08 21:31:00
4:51 PM,28.4,21.2,74,30.16,10.0,NNW,8.1,19.6,N/A,,Overcast,330,2013-02-08 21:51:00
5:11 PM,28.4,23.0,80,30.17,10.0,NNW,10.4,-,N/A,,Overcast,340,2013-02-08 22:11:00
5:31 PM,28.4,21.2,74,30.18,10.0,NNW,11.5,-,N/A,,Overcast,330,2013-02-08 22:31:00
5:52 PM,28.4,21.2,74,30.19,10.0,North,11.5,16.1,N/A,,Overcast,350,2013-02-08 22:52:00
6:32 PM,26.6,21.2,80,30.22,10.0,NNW,6.9,-,N/A,,Overcast,340,2013-02-08 23:32:00
6:52 PM,26.6,21.2,80,30.22,10.0,NNW,4.6,-,N/A,,Overcast,340,2013-02-08 23:52:00
7:12 PM,26.6,19.4,74,30.23,10.0,NNW,9.2,-,N/A,,Scattered Clouds,340,2013-02-09 00:12:00
7:32 PM,26.6,19.4,74,30.24,10.0,North,6.9,-,N/A,,Clear,350,2013-02-09 00:32:00
7:52 PM,26.6,19.4,74,30.25,10.0,North,6.9,-,N/A,,Mostly Cloudy,350,2013-02-09 00:52:00
8:12 PM,26.6,19.4,74,30.26,10.0,North,10.4,-,N/A,,Overcast,350,2013-02-09 01:12:00
8:32 PM,26.6,17.6,69,30.27,10.0,North,10.4,17.3,N/A,,Mostly Cloudy,350,2013-02-09 01:32:00
8:53 PM,26.6,19.4,74,30.27,10.0,NNW,8.1,-,N/A,,Mostly Cloudy,330,2013-02-09 01:53:00
9:13 PM,24.8,17.6,74,30.28,10.0,NNW,5.8,-,N/A,,Scattered Clouds,330,2013-02-09 02:13:00
9:33 PM,24.8,19.4,80,30.28,10.0,NW,5.8,-,N/A,,Mostly Cloudy,320,2013-02-09 02:33:00
9:53 PM,24.8,17.6,74,30.29,10.0,NNW,3.5,-,N/A,,Mostly Cloudy,330,2013-02-09 02:53:00
10:13 PM,21.2,17.6,86,30.31,10.0,Calm,Calm,-,N/A,,Clear,0,2013-02-09 03:13:00
10:33 PM,21.2,17.6,86,30.31,10.0,Calm,Calm,-,N/A,,Clear,0,2013-02-09 03:33:00
10:53 PM,19.4,15.8,86,30.31,10.0,Calm,Calm,-,N/A,,Clear,0,2013-02-09 03:53:00
11:13 PM,19.4,15.8,86,30.31,10.0,WNW,3.5,-,N/A,,Clear,300,2013-02-09 04:13:00
11:33 PM,19.4,15.8,86,30.32,10.0,WNW,4.6,-,N/A,,Clear,290,2013-02-09 04:33:00
11:54 PM,19.4,15.8,86,30.32,10.0,NW,4.6,-,N/A,,Clear,310,2013-02-09 04:54:00